Regional Weather Roundup
Issued by NWS

Home | Current Version | Previous Version | Text Only | Print | Product List | Glossary On
Versions: 1 2 3 4 5 6 7 8 9 10 11 12 13 14 15 16 17 18 19 20 21 22 23 24 25 26 27 28 29 30 31 32 33 34 35 36 37 38 39 40 41 42 43 44 45 46 47 48 49 50
000
ASUS42 KTBW 312017
RWRFL
FLORIDA REGIONAL WEATHER ROUNDUP
NATIONAL WEATHER SERVICE TAMPA BAY RUSKIN FL
400 PM EDT TUE MAY 31 2016

NOTE: "FAIR" INDICATES FEW OR NO CLOUDS BELOW 12,000 FEET WITH NO
SIGNIFICANT WEATHER AND/OR OBSTRUCTIONS TO VISIBILITY.

FLZ001>010-012>015-112-114-115-312100-
PANHANDLE FLORIDA

CITY           SKY/WX    TMP DP  RH WIND       PRES   REMARKS
PENSACOLA      SUNNY     90  72  55 S13       29.91S HX  97
MILTON NAS     TSTM      73  66  78 SW12      29.92
CRESTVIEW      LGT RAIN  71  66  84 S9        29.94F
DUKE FIELD     TSTM      70  65  84 SE2       29.93S
VALPARAISO     MOSUNNY   82  70  67 NE6       29.93F
MARY ESTHER    CLOUDY    86  72  62 S9        29.92S
TRI COUNTY     FAIR      91  61  36 S15       29.90F THUNDER
PANAMA CITY    LGT RAIN  78  60  53 SW8       29.91F
TYNDALL AFB    MOSUNNY   85  76  73 W14       29.92F
APALACHICOLA   CLOUDY    86  76  71 SW10      29.92F HX  96

STATION/POSITION SKY/WX   TEMP    WIND        PRES    WAVE   SWELL
                          AIR SEA DIR/SP/G            HT/PER HT/PER
                          (F)     (DEG/KT/KT) (MB)    (FT/S) (FT/S)
30.1N   87.6W              82 85              1012.7F   1
29.2N   88.2W              81 81  200/  4/  6 1013.9F
28.8N   86.0W              80 85  210/  6/  8 1014.5F   1
PANAMA CITY BEAC           81 81  220/  9/ 11 1014.4S
TOWER C                    79     240/  9/ 10 1014.2F
28.5N   84.5W              81 83  230/  2/  4 1013.9F   1

$$
FLZ011-016>038-118-127-128-134-139-239-312100-
NORTH FLORIDA

CITY           SKY/WX    TMP DP  RH WIND       PRES   REMARKS
MARIANNA       MOSUNNY   93  60  33 SE6       29.88F
TALLAHASSEE    PTSUNNY   89  65  44 E7        29.89F
PERRY          SUNNY     91  67  45 S12G20    29.90F
LIVE OAK       FAIR      90  61  37 W9        29.90F
CROSS CITY       N/A     90  66  45 W10       29.89F
LAKE CITY      FAIR      91  59  33 SW6       29.88F
GAINESVILLE    SUNNY     93  60  33 SE7       29.88F
WILLISTON      FAIR      79  64  61 SW13G24   29.91S
PALATKA        FAIR      93  63  36 S7        29.88F
MAYPORT NAS    LGT RAIN  76  68  76 S8        29.90S
JACKSONVILLE   PTSUNNY   82  69  64 SE9       29.88F THUNDER
JAX NAS        TSTM      79  65  62 NE9G22    29.92R
JAX CECIL      PTSUNNY   86  64  48 NE14      29.89
FERNANDINA BEA FAIR      82  70  65 SE9       29.89F THUNDER
ST AUGUSTINE   SUNNY     89  73  59 SE14      29.89F HX  97
PALM COAST     SUNNY     90  70  51 SE7       29.89F HX  95

STATION/POSITION SKY/WX   TEMP    WIND        PRES    WAVE   SWELL
                          AIR SEA DIR/SP/G            HT/PER HT/PER
                          (F)     (DEG/KT/KT) (MB)    (FT/S) (FT/S)
SHELL POINT                86     190/  9/ 13 1012.2
KEATON BEACH               81     240/ 13/ 15 1012.6F
CEDAR KEY                  82     260/  8/ 13 1013.4F
FERNANDINA                 86 81  100/  6/ 11 1012.6F
30.7N   81.3W                 80                N/A     2/ 8
MAYPORT                    85 80   90/  4/  8 1012.9F
31.4N   80.9W              77 79  130/ 10/ 10 1012.2F   2/ 8   2/ 8
ST AUGUSTINE               81 82  140/ 14/ 15 1012.9F

$$
FLZ040-043>046-052-053-057-058-063-144-312100-
INTERIOR CENTRAL FLORIDA

CITY           SKY/WX    TMP DP  RH WIND       PRES   REMARKS
OCALA          PTSUNNY   88  63  42 S12G17    29.91F
THE VILLAGES     N/A     84  66  54 CALM      29.82F
LEESBURG       MOSUNNY   90  63  40 S6        29.92F
SANFORD        SUNNY     91  66  43 S6        29.90F
ORLANDO EXEC   MOSUNNY   90  63  40 S3        29.90F
ORLANDO INTL   MOSUNNY   93  64  38 VRB3      29.90F
KISSIMMEE      PTSUNNY   90  66  45 S6        29.92F
WINTER HAVEN   SUNNY     91  61  36 VRB3      29.92F
LAKELAND       LGT RAIN  88  68  51 N6        29.92F
BARTOW         PTSUNNY   88  64  45 VRB5      29.92F
OKEECHOBEE     MOSUNNY   86  68  54 CALM      29.91F

$$
FLZ041-047-054-059-064-141-147-312100-
EAST CENTRAL FLORIDA

CITY           SKY/WX    TMP DP  RH WIND       PRES   REMARKS
ORMOND BEACH   MOSUNNY   90  72  55 SE8       29.90F HX  96
DAYTONA BEACH  MOSUNNY   88  72  58 E10       29.90F
DELAND           N/A     90  64  43 CALM      29.91F
NEW SMYRNA BEA MOSUNNY   86  70  58 E8        29.92F
JFK SPACE CTR  SUNNY     88  70  53 E9        29.91F
TITUSVILLE     MOSUNNY   88  72  58 E12         N/A
CAPE CANAVERAL SUNNY     85  71  62 SE7       29.91F
PATRICK AFB    SUNNY     85  71  62 E12       29.91F
MELBOURNE      CLOUDY    86  70  58 E12       29.92F
VERO BEACH     CLOUDY    84  67  56 E9        29.93F
FT PIERCE      MOSUNNY   86  68  54 SE10      29.93F
STUART         MOSUNNY   86  72  62 E12       29.95F

STATION/POSITION SKY/WX   TEMP    WIND        PRES    WAVE   SWELL
                          AIR SEA DIR/SP/G            HT/PER HT/PER
                          (F)     (DEG/KT/KT) (MB)    (FT/S) (FT/S)
28.5N   80.2W              80 84  170/  4/  4 1014.1F
28.9N   78.5W              80 80  200/  8/ 10 1013.9F
TRIDENT PIER               86 82   90/  7/ 11 1013.7F
28.4N   80.5W                 83                N/A     2/ 8
27.5N   80.2W                 83                N/A     2/ 8

$$
FLZ050-056-061-142-242-148-248-149-249-151-251-155-255-
160-260-312100-
WEST CENTRAL FLORIDA

CITY           SKY/WX    TMP DP  RH WIND       PRES   REMARKS
CRYSTAL RIVER  FAIR      88  64  45 W10       29.92F
INVERNESS      RAIN      88  70  55 CALM      29.91F
BROOKSVILLE    SUNNY     92  64  39 W9        29.92F
ZEPHYRHILLS    CLOUDY    92  60  33 CALM      29.91F
CLEARWATER AIR FAIR      86  68  54 W8        29.92F
ST PETE CLEARW SUNNY     89  67  47 W9        29.92F
TAMPA INTL     PTSUNNY   87  67  51 W9        29.92F
TAMPA EXEC     PTSUNNY   84  68  58 CALM      29.92F
PLANT CITY     CLOUDY    90  70  51 SW5       29.93F HX  95
MACDILL AFB    CLOUDY    91  71  52 NW6       29.91F HX  97
PETER O KNIGHT DRIZZLE   88  70  55 NW5       29.92F
ST PETERSBURG  SUNNY     87  69  54 NW8       29.90F
SARASOTA       SUNNY     88  70  55 NW12      29.91F
VENICE         NOT AVBL

STATION/POSITION SKY/WX   TEMP    WIND        PRES    WAVE   SWELL
                          AIR SEA DIR/SP/G            HT/PER HT/PER
                          (F)     (DEG/KT/KT) (MB)    (FT/S) (FT/S)
27.3N   84.2W                 84                N/A     0
CLEARWATER BEACH           81 85  290/  8/ 10 1014.1F
MIDDLE TAMPA BAY           82     300/ 11/ 13 1014.2F
VENICE                     83 84  270/  8/  9 1013.1F

$$
FLZ066-069-070-075>078-162-262-165-265-312100-
SOUTHWEST FLORIDA AND KEYS

CITY           SKY/WX    TMP DP  RH WIND       PRES   REMARKS
PUNTA GORDA    SUNNY     93  64  38 VRB6      29.92F
FT MYERS       MOSUNNY   89  65  44 CALM      29.90F
SOUTHWEST INTL MOSUNNY   88  66  48 VRB5      29.91F
NAPLES         MOSUNNY   81  67  62 SE28G35   29.94S
MARCO ISLAND   CLOUDY    77  68  73 E23G30    29.97R THUNDER
MARATHON       MOSUNNY   84  72  67 NE8       29.94S THUNDER
KEY WEST NAS   MOSUNNY   83  72  69 S5        29.93F
KEY WEST INTL  MOSUNNY   85  69  58 CALM      29.93F

STATION/POSITION SKY/WX   TEMP    WIND        PRES    WAVE   SWELL
                          AIR SEA DIR/SP/G            HT/PER HT/PER
                          (F)     (DEG/KT/KT) (MB)    (FT/S) (FT/S)
NAPLES                        86              1014.0F
26.0N   85.6W              81 83   90/  4/  6 1014.5F   1
DRY TORTUGAS               82      80/  9/ 11 1013.3F
SAND KEY                   81      70/  6/  8 1013.9F
LONG KEY                   82 89   20/  9/ 11 1014.0F
MOLASSES REEF              82 84   50/  8/  9 1013.9

$$
FLZ067-068-071>074-168-172>174-312100-
SOUTHEAST FLORIDA

CITY           SKY/WX    TMP DP  RH WIND       PRES   REMARKS
W PALM BEACH   CLOUDY    84  69  60 E10       29.95F
BOCA RATON     SUNNY     81  68  65 W3        29.94F
FT LAUDER-EXEC CLOUDY    78  65  63 W6        29.94F
FT LAUDERDALE  CLOUDY    78  70  76 NW7       29.93F
POMPANO BEACH  CLOUDY    79  66  64 W5        29.94F
PEMBROKE PINES CLOUDY    76  71  85 NW7       29.95F
OPA LOCKA      CLOUDY    76  71  85 NW8       29.95F
MIAMI          LGT RAIN  77  70  79 N7        29.94F
WEST KENDALL   LGT RAIN  74  71  91 N7        29.94F
HOMESTEAD      LGT RAIN  77  72  84 NW9       29.94F

STATION/POSITION SKY/WX   TEMP    WIND        PRES    WAVE   SWELL
                          AIR SEA DIR/SP/G            HT/PER HT/PER
                          (F)     (DEG/KT/KT) (MB)    (FT/S) (FT/S)
PORT EVERGLADES            80     330/  5/  7 1013.7F
VIRGINIA KEY               82 85   30/  2/  4 1014.8F
LAKE WORTH                 82 84  130/  4/  5 1014.7R
FOWEY ROCKS                81 84   40/  5/  6 1014.4F
SETTLEMEC1F1M1C2F2M2C3F3C4F4M3C5F5M4C6F6M5C7F7M6C8!


USA.gov is the U.S. government's official web portal to all federal, state and local government web resources and services.